User: anonymous   Login
Location: Unspecified
(0.0000°N, 0.0000°E)
Time: 08:52:29
(UTC+00:00)
Language:

ONEWEB-0052 - Orbit

View from above orbital plane
View from above orbital plane
View from above satellite
View from above satellite

Ground track
Ground track

The orbit is defined by the following mean orbital elements,

1 45156U          26145.41297941 +.00000000 +00000-0 -44438-3 0 00006
2 45156  87.8852  40.7959 0002137  89.5920 270.5452 13.10371014    07
Epoch (UTC): 25 May 2026 09:54:41
Eccentricity: 0.0002137
inclination: 87.8852°
perigee height: 1220 km
apogee height: 1223 km
right ascension of ascending node: 40.7959°
argument of perigee: 89.5920°
revolutions per day: 13.10371014
mean anomaly at epoch: 270.5452°

The dashed part of the orbit path shows where the satellite is in the earth's shadow,  

DLR